M0ZPG Weather Reports


time (UTC)temp
C
wind
direction
speed
KPH
gust
KPH
rain 1hr
cm
rain 24hr
cm
rain mn
cm
humidity
%
barometer
mb
20260507150009 14 141 1.6 9.7 0.00 0.00 0.00 60 1014.5
20260507145405 15 103 3.2 9.7 0.00 0.00 0.00 60 1014.5
20260507144503 15 125 1.6 9.7 0.00 0.00 0.00 58 1014.5
20260507143603 15 146 1.6 8.0 0.00 0.00 0.00 59 1014.5
20260507142705 15 108 3.2 11.3 0.00 0.00 0.00 59 1014.6
20260507141803 15 88 3.2 12.9 0.00 0.00 0.00 59 1014.5
20260507140905 15 97 3.2 12.9 0.00 0.00 0.00 59 1014.6
20260507140003 15 99 3.2 14.5 0.00 0.00 0.00 62 1014.7
20260507135404 15 99 3.2 12.9 0.00 0.00 0.00 63 1014.6
20260507134503 15 84 4.8 14.5 0.00 0.00 0.00 62 1014.6
20260507133603 15 94 3.2 9.7 0.00 0.00 0.00 62 1014.8
20260507132703 15 85 3.2 8.0 0.00 0.00 0.00 59 1014.8
20260507131806 15 113 1.6 6.4 0.00 0.00 0.00 60 1014.8
20260507130906 15 99 1.6 6.4 0.00 0.00 0.00 61 1014.9
20260507130007 14 78 1.6 6.4 0.00 0.00 0.00 64 1014.9
20260507125408 14 79 1.6 4.8 0.00 0.00 0.00 64 1014.9
20260507124504 14 82 1.6 11.3 0.00 0.00 0.00 65 1015.0
20260507123817 13 79 1.6 11.3 0.00 0.00 0.00 65 1015.1
20260507122705 13 76 1.6 6.4 0.00 0.00 0.00 66 1015.0
20260507121805 13 73 1.6 6.4 0.00 0.00 0.00 66 1015.1
20260507120903 13 78 0.0 3.2 0.00 0.00 0.00 67 1015.1
20260507120005 13 78 1.6 4.8 0.00 0.00 0.00 66 1015.1
20260507115404 12 79 0.0 4.8 0.00 0.00 0.00 67 1015.0
20260507114504 12 79 0.0 3.2 0.00 0.00 0.00 67 1015.0
20260507113605 12 79 0.0 4.8 0.00 0.00 0.00 67 1015.1
20260507112705 12 79 1.6 3.2 0.00 0.00 0.00 67 1015.0
20260507111804 12 79 0.0 4.8 0.00 0.00 0.00 68 1015.2
20260507110905 12 79 1.6 8.0 0.00 0.00 0.00 68 1015.2
20260507110217 12 80 0.0 8.0 0.00 0.00 0.00 68 1015.2
20260507105613 12 81 0.0 3.2 0.00 0.00 0.00 68 1015.2
20260507104503 12 81 0.0 3.2 0.00 0.00 0.00 68 1015.2
20260507103605 13 81 1.6 6.4 0.00 0.00 0.00 68 1015.2
20260507102915 12 83 0.0 6.4 0.00 0.00 0.00 69 1015.1
20260507101803 12 84 1.6 4.8 0.00 0.00 0.00 70 1015.3
20260507100904 12 85 1.6 4.8 0.00 0.00 0.00 71 1015.3
20260507100005 12 86 1.6 3.2 0.00 0.00 0.00 72 1015.3
20260507095405 12 86 1.6 6.4 0.00 0.00 0.00 71 1015.3
20260507094505 12 86 1.6 6.4 0.00 0.00 0.00 72 1015.2
20260507093814 12 91 1.6 6.4 0.00 0.00 0.00 72 1015.2
20260507092916 12 101 1.6 6.4 0.00 0.00 0.00 70 1015.2
20260507091803 12 103 0.0 3.2 0.00 0.00 0.00 72 1015.2
20260507090905 12 103 0.0 1.6 0.00 0.00 0.00 71 1015.1
20260507090004 12 103 0.0 4.8 0.00 0.00 0.00 71 1015.1
20260507085403 12 103 0.0 3.2 0.00 0.00 0.00 71 1015.1
20260507084717 12 102 1.6 6.4 0.00 0.00 0.00 73 1015.1
20260507083605 12 102 1.6 6.4 0.00 0.00 0.00 74 1015.1
20260507082703 12 103 1.6 9.7 0.00 0.00 0.00 73 1015.0
20260507082014 12 103 1.6 6.4 0.00 0.00 0.00 73 1015.0
20260507081116 12 104 1.6 6.4 0.00 0.00 0.00 73 1015.1
20260507080214 12 105 1.6 6.4 0.00 0.00 0.00 73 1015.1
20260507075405 12 105 0.0 3.2 0.00 0.00 0.00 73 1015.0
20260507074718 12 103 1.6 6.4 0.00 0.00 0.00 75 1015.0
20260507073815 12 102 1.6 6.4 0.00 0.00 0.00 73 1015.1
20260507072705 12 100 1.6 6.4 0.00 0.00 0.00 77 1015.1
20260507071805 12 101 1.6 6.4 0.00 0.00 0.00 77 1015.1
20260507070905 11 102 1.6 9.7 0.00 0.00 0.00 78 1015.1
20260507070009 11 95 1.6 6.4 0.00 0.00 0.00 79 1015.0
20260507065616 11 97 1.6 6.4 0.00 0.00 0.00 79 1015.0
20260507064503 11 93 1.6 4.8 0.00 0.00 0.00 80 1014.9
20260507063605 11 89 1.6 4.8 0.00 0.00 0.00 80 1014.9
20260507062705 11 83 1.6 6.4 0.00 0.00 0.00 81 1014.8
20260507061805 10 22 0.0 3.2 0.00 0.00 0.00 83 1014.7
20260507060905 10 0 0.0 0.0 0.00 0.00 0.00 87 1014.7
20260507060005 8 0 0.0 0.0 0.00 0.00 0.00 89 1014.6
20260507055405 8 0 0.0 0.0 0.00 0.00 0.00 89 1014.6
20260507054503 7 0 0.0 0.0 0.00 0.00 0.00 89 1014.6
20260507053603 7 21 0.0 1.6 0.00 0.00 0.00 88 1014.6
20260507052703 7 21 0.0 1.6 0.00 0.00 0.00 88 1014.5
20260507051803 7 0 0.0 0.0 0.00 0.00 0.00 88 1014.5
20260507050906 7 0 0.0 0.0 0.00 0.00 0.00 88 1014.5
20260507050003 7 0 0.0 0.0 0.00 0.00 0.00 87 1014.5
20260507045617 7 21 0.0 1.6 0.00 0.00 0.00 87 1014.4
20260507044505 7 21 0.0 1.6 0.00 0.00 0.00 87 1014.4
20260507043604 8 0 0.0 0.0 0.00 0.00 0.00 87 1014.4
20260507042703 8 0 0.0 0.0 0.00 0.00 0.00 87 1014.3
20260507041805 8 0 0.0 0.0 0.00 0.00 0.00 87 1014.4
20260507040905 8 0 0.0 0.0 0.00 0.00 0.00 88 1014.4
20260507040003 8 21 0.0 1.6 0.00 0.00 0.00 88 1014.3
20260507035403 8 0 0.0 0.0 0.00 0.00 0.00 88 1014.3
20260507034505 8 0 0.0 0.0 0.00 0.00 0.00 87 1014.3
20260507033812 8 0 0.0 0.0 0.00 0.00 0.00 87 1014.3
20260507032703 8 0 0.0 0.0 0.00 0.00 0.00 86 1014.1
20260507031803 8 0 0.0 0.0 0.00 0.00 0.00 86 1014.1
20260507030905 8 0 0.0 0.0 0.00 0.00 0.00 86 1014.1
20260507030005 8 0 0.0 0.0 0.00 0.00 0.00 86 1014.1
20260507025405 8 0 0.0 0.0 0.00 0.00 0.00 85 1014.1
20260507024716 8 21 0.0 1.6 0.00 0.00 0.00 85 1014.1
20260507023818 8 21 0.0 1.6 0.00 0.00 0.00 85 1014.1
20260507022916 8 21 0.0 1.6 0.00 0.00 0.00 86 1014.1
20260507021804 8 21 0.0 1.6 0.00 0.00 0.00 86 1014.1
20260507020903 8 21 0.0 3.2 0.00 0.00 0.00 86 1014.0
20260507020218 8 21 0.0 3.2 0.00 0.00 0.00 86 1014.0
20260507015403 8 21 0.0 1.6 0.00 0.00 0.00 86 1014.0
20260507014503 8 0 0.0 0.0 0.00 0.00 0.00 86 1014.0
20260507013605 8 0 0.0 0.0 0.00 0.00 0.00 86 1013.9
20260507012705 8 21 0.0 1.6 0.00 0.00 0.00 85 1013.9
20260507011803 8 0 0.0 0.0 0.00 0.00 0.00 84 1013.9
20260507010003 8 0 0.0 0.0 0.00 0.00 0.00 83 1013.9
20260507005405 8 0 0.0 0.0 0.00 0.00 0.00 83 1013.9
20260507004504 9 21 0.0 1.6 0.00 0.00 0.00 83 1013.8
20260507003814 9 21 0.0 1.6 0.00 0.00 0.00 82 1013.9
20260507002705 9 21 0.0 1.6 0.00 0.00 0.00 82 1013.9
20260507001805 9 21 0.0 3.2 0.00 0.00 0.00 82 1013.9
20260507000905 10 21 0.0 3.2 0.00 0.00 0.00 81 1013.9
20260507000214 10 21 0.0 3.2 0.00 0.00 0.00 81 1013.9
20260506235405 10 22 0.0 3.2 0.00 0.00 0.00 80 1013.8
20260506234723 10 22 0.0 3.2 0.00 0.00 0.00 80 1013.8
20260506233606 10 22 0.0 3.2 0.00 0.00 0.00 79 1013.7
20260506232705 10 22 0.0 3.2 0.00 0.00 0.00 79 1013.7
20260506231803 10 22 0.0 3.2 0.00 0.00 0.00 79 1013.7
20260506231117 10 22 0.0 3.2 0.00 0.00 0.00 78 1013.7
20260506230003 10 20 0.0 4.8 0.00 0.00 0.00 78 1013.8
20260506225404 10 21 0.0 6.4 0.00 0.00 0.00 78 1013.8
20260506224505 10 22 0.0 3.2 0.00 0.00 0.00 77 1013.7
20260506223816 10 22 0.0 3.2 0.00 0.00 0.00 77 1013.7
20260506222913 10 22 0.0 3.2 0.00 0.00 0.00 76 1013.6
20260506222015 10 25 0.0 4.8 0.00 0.00 0.00 75 1013.5
20260506220903 10 18 0.0 4.8 0.00 0.00 0.00 74 1013.5
20260506220005 10 17 0.0 3.2 0.00 0.00 0.00 74 1013.5
20260506215403 10 17 0.0 3.2 0.00 0.00 0.00 73 1013.4
20260506214506 11 20 0.0 6.4 0.00 0.00 0.00 72 1013.5
20260506213603 11 12 1.6 8.0 0.00 0.00 0.00 72 1013.5
20260506212703 11 332 1.6 8.0 0.00 0.00 0.00 71 1013.5
20260506211803 11 15 1.6 6.4 0.00 0.00 0.00 70 1013.5
20260506211118 11 28 1.6 6.4 0.00 0.00 0.00 70 1013.5
20260506210003 11 11 1.6 4.8 0.00 0.00 0.00 69 1013.3
20260506205403 11 3 1.6 8.0 0.00 0.00 0.00 69 1013.4
20260506204504 11 25 1.6 8.0 0.00 0.00 0.00 69 1013.3
20260506203603 11 359 1.6 6.4 0.00 0.00 0.00 69 1013.3
20260506202705 11 358 1.6 8.0 0.00 0.00 0.00 68 1013.2
20260506201805 11 356 1.6 6.4 0.00 0.00 0.00 67 1013.1
20260506200903 11 352 1.6 9.7 0.00 0.00 0.00 66 1013.1
20260506200004 11 360 1.6 9.7 0.00 0.00 0.00 66 1013.0
20260506195405 11 3 1.6 6.4 0.00 0.00 0.00 65 1012.9
20260506194505 12 355 1.6 12.9 0.00 0.00 0.00 65 1012.9
20260506193605 12 17 1.6 9.7 0.00 0.00 0.00 66 1012.8
20260506192703 12 24 1.6 8.0 0.00 0.00 0.00 66 1012.6
20260506191803 12 8 3.2 12.9 0.00 0.00 0.00 65 1012.6
20260506190906 12 12 1.6 9.7 0.00 0.00 0.00 65 1012.5
20260506190004 12 45 1.6 6.4 0.00 0.00 0.00 65 1012.5
20260506185404 12 37 1.6 9.7 0.00 0.00 0.00 65 1012.4
20260506184505 12 90 1.6 8.0 0.00 0.00 0.00 65 1012.4
20260506183603 12 93 3.2 11.3 0.00 0.00 0.00 64 1012.3
20260506182705 12 48 3.2 8.0 0.00 0.00 0.00 61 1012.1
20260506181805 12 7 3.2 12.9 0.00 0.00 0.00 59 1012.1
20260506180903 12 23 3.2 11.3 0.00 0.00 0.00 60 1012.0
20260506180005 12 10 3.2 11.3 0.00 0.00 0.00 59 1012.0
20260506175403 12 41 3.2 9.7 0.00 0.00 0.00 59 1011.9
20260506174503 12 56 3.2 12.9 0.00 0.00 0.00 59 1011.9
20260506173819 12 36 1.6 8.0 0.00 0.00 0.00 59 1011.8
20260506172703 13 26 3.2 14.5 0.00 0.00 0.00 58 1011.8
20260506171808 13 323 1.6 8.0 0.00 0.00 0.00 59 1011.8
20260506171116 13 319 1.6 11.3 0.00 0.00 0.00 59 1011.8
20260506170218 13 23 1.6 6.4 0.00 0.00 0.00 59 1011.8
20260506165403 13 35 3.2 8.0 0.00 0.00 0.00 58 1011.7
20260506164505 13 8 3.2 12.9 0.00 0.00 0.00 58 1011.7
20260506163603 13 13 3.2 8.0 0.00 0.00 0.00 59 1011.7
20260506162705 14 15 3.2 12.9 0.00 0.00 0.00 58 1011.7
20260506161805 14 356 3.2 11.3 0.00 0.00 0.00 59 1011.7
20260506160903 13 1 3.2 12.9 0.00 0.00 0.00 60 1011.7
20260506160005 13 10 3.2 8.0 0.00 0.00 0.00 61 1011.9
20260506155615 13 11 3.2 14.5 0.00 0.00 0.00 61 1011.9
20260506154503 13 36 3.2 12.9 0.00 0.00 0.00 61 1011.9
20260506153603 13 331 3.2 14.5 0.00 0.00 0.00 62 1012.0
20260506152706 13 336 3.2 12.9 0.00 0.00 0.00 63 1012.0
20260506151806 12 350 3.2 9.7 0.00 0.00 0.00 63 1012.0
20260506150904 12 21 3.2 12.9 0.00 0.00 0.00 65 1012.1